This demonstration page uses our WeatherBlox Daily Observations layout. Learn more.

Left ArrowRight Arrow

Hourly Observations for March 23, 2018

Temp ( °F °C ) Dew Point ( °F °C ) Humidity (%) Winds ( mph kmh ) Pressure ( in mb ) Visibility ( mi km ) Precip ( " mm )
12:53 am 00:53 Clear 50 10 39 3.9 66 66 E 10 17 30.03 1017 10 16 0.00 0.00
1:53 am 01:53 Mostly Clear 49 9.4 38 3.3 66 66 E 12 19 30.03 1017 10 16 0.00 0.00
2:53 am 02:53 Mostly Cloudy 48 8.9 37 2.8 66 66 ESE 13 20 30.04 1017 10 16 0.00 0.00
3:53 am 03:53 Mostly Clear 46 7.8 36 2.2 68 68 ESE 14 22 29.98 1015 10 16 0.00 0.00
4:53 am 04:53 Clear 44 6.7 35 1.7 71 71 E 14 22 29.95 1014 10 16 0.00 0.00
5:53 am 05:53 Clear 43 6.1 36 2.2 76 76 E 14 22 29.96 1015 10 16 0.00 0.00
6:53 am 06:53 Clear 42 5.6 36 2.2 79 79 E 14 22 29.95 1014 10 16 0.00 0.00
7:53 am 07:53 Sunny 40 4.4 36 2.2 86 86 E 16 26 29.94 1014 10 16 0.00 0.00
8:53 am 08:53 Sunny 42 5.6 37 2.8 82 82 E 17 28 29.93 1014 10 16 0.00 0.00
9:53 am 09:53 Sunny 44 6.7 37 2.8 76 76 ESE 17 28 29.92 1013 10 16 0.00 0.00
10:53 am 10:53 Sunny 48 8.9 38 3.3 68 68 E 18 30 29.87 1012 10 16 0.00 0.00
11:53 am 11:53 Sunny 52 11.1 39 3.9 61 61 SE 21 33 29.84 1011 10 16 0.00 0.00
12:53 pm 12:53 Mostly Cloudy 57 13.9 42 5.6 58 58 ESE 18 30 29.81 1009 10 16 0.00 0.00
1:53 pm 13:53 Cloudy 59 15 43 6.1 56 56 ESE 21 33 29.76 1008 10 16 0.00 0.00
2:53 pm 14:53 Cloudy 62 16.7 44 6.7 52 52 E 17 28 29.72 1006 10 16 0.00 0.00
3:01 pm 15:01 Mostly Cloudy 63 17.2 45 7.2 52 52 SE 21 33 29.65 1004 10 16 0.00 0.00
3:53 pm 15:53 Mostly Cloudy 65 18.3 47 8.3 52 52 SE 22 35 29.68 1005 10 16 0.00 0.00
4:53 pm 16:53 Mostly Cloudy 67 19.4 48 8.9 51 51 SE 17 28 29.66 1004 10 16 0.00 0.00
5:53 pm 17:53 Cloudy 66 18.9 47 8.3 50 50 ESE 23 37 29.63 1003 10 16 0.00 0.00
6:53 pm 18:53 Mostly Cloudy 61 16.1 46 7.8 58 58 E 18 30 29.65 1004 10 16 0.00 0.00
7:53 pm 19:53 Cloudy 56 13.3 46 7.8 70 70 ENE 17 28 29.70 1006 10 16 0.00 0.03
8:41 pm 20:41 Cloudy with Nearby Thunderstorms 49 9.4 44 6.7 83 83 NE 26 43 29.71 1006 9 14 0.02 0.51
8:53 pm 20:53 Windy with Storms Likely 48 8.9 44 6.7 86 86 NE 22 35 29.72 1006 8 13 0.02 0.51
9:01 pm 21:01 Cloudy with Thunderstorms 48 9 45 7 87 87 NNE 18 30 29.71 1006 8 13 0.00 0.00
9:23 pm 21:23 Cloudy with Strong Thunderstorms 46 8 45 7 93 93 ENE 17 28 29.74 1007 2 3 0.00 0.00
9:39 pm 21:39 Cloudy with Thunderstorms 46 7.8 44 6.7 93 93 ENE 17 28 29.74 1007 3 5 0.32 8.13
9:53 pm 21:53 Cloudy with Thunderstorms 45 7.2 44 6.7 97 97 NNE 17 28 29.78 1008 4 6 0.35 8.89
10:00 pm 22:00 Windy with Storms Likely 46 8 45 7 93 93 NW 21 33 29.85 1011 4 6 0.00 0.00
10:08 pm 22:08 Cloudy with Strong Thunderstorms 45 7 45 7 100 100 NNW 14 22 29.83 1010 3 5 0.00 0.00
10:10 pm 22:10 Cloudy with Nearby Thunderstorms 45 7 45 7 100 100 N 13 20 29.83 1010 3 4 0.00 0.00
10:18 pm 22:18 Cloudy with Heavy Rain 45 7.2 44 6.7 97 97 NE 20 31 29.77 1008 2 3 0.11 2.79
10:25 pm 22:25 Cloudy with Rain 45 7 45 7 100 100 ENE 29 46 29.74 1007 3 5 0.00 0.00
10:50 pm 22:50 Cloudy with Mist and Fog 45 7 45 7 100 100 N 16 26 29.80 1009 6 10 0.13 3.30
10:53 pm 22:53 Cloudy with Mist and Fog 45 7.2 44 6.7 97 97 N 17 28 29.78 1008 6 10 0.13 3.30
11:46 pm 23:46 Mostly Cloudy with Mist and Fog 44 6.7 43 6.1 96 96 NE 15 24 29.80 1009 6 10 0.00 0.00
11:53 pm 23:53 Mostly Cloudy with Mist and Fog 43 6.1 43 6.1 100 100 NE 15 24 29.78 1009 6 10 0.00 0.00

Powered by AerisWeather